Location: Bacharowice
(49.9333°N, 19.5833°E)
Time: 01:52:06
(UTC+00:00)

ERS-1 Rocket - Pass Details

Date: 11 May 2021
Orbit: 753 x 757 km, 98.4° (Epoch: 22 June)

Event Time Altitude Azimuth Distance (km) Brightness Sun altitude
Exits shadow 18:50:21 - 115° (ESE) 2,614 5.1 -5.5°
Reaches altitude 10° 18:51:23 10° 109° (ESE) 2,282 4.9 -5.7°
Maximum altitude 18:55:13 22° 59° (ENE) 1,597 4.5 -6.1°
Drops below altitude 10° 18:59:03 10° 9° (N) 2,295 5.9 -6.6°
Sets 19:01:47 0° 355° (N) 3,226 7.0 -7.0°
